Wright-Patt AFB, OH

3:00 PM EST on November 19, 2017 (GMT -0500)
Wright-Patterson Air Force Base

Weather History for KFFO - July, 2013

Change the Weather History Date:

Monday, July 22, 2013

  Actual Average Record
Temperature  
Mean Temperature 74 °F -  
Max Temperature 78 °F 82 °F 98 °F (1999)
Min Temperature 69 °F 61 °F 53 °F (2000)
Cooling Degree Days 8    
Growing Degree Days 24 (Base 50)    
Moisture  
Dew Point 70 °F    
Average Humidity 91    
Maximum Humidity 100    
Minimum Humidity 74    
Precipitation  
Precipitation 0.33 in - - ()
Sea Level Pressure  
Sea Level Pressure 29.85 in    
Wind  
Wind Speed 3 mph (East)    
Max Wind Speed 8 mph    
Max Gust Speed -    
Visibility 8 miles    
Events Fog , Rain , Thunderstorm    
Averages and records for this station are not official NWS values.
T = Trace of Precipitation, MM = Missing Value Source: NWS Daily Summary

Daily Weather History Graph

Daily Weather History Graph

Search for Another Location

Airport or City:

Trip Planner

Search our weather history database for the weather conditions in past years. The results will help you decide how hot, cold, wet, or windy it might be!

Date:

Astronomy

Jul. 22, 2013 Rise Set
Actual Time 6:26 AM EDT 8:58 PM EDT
Civil Twilight 5:55 AM EDT 9:29 PM EDT
Nautical Twilight 5:16 AM EDT 10:08 PM EDT
Astronomical Twilight 4:33 AM EDT 10:51 PM EDT
Moon 8:44 PM EDT (7/22) 6:21 AM EDT (7/22)
Length of Visible Light 15h 34m
Length of Day
14h 32m
Full, 100% of the Moon is Illuminated
Jul 22
Full
Jul 22
Full
Jul 29
Last Quarter
Aug 6
New
Aug 14
First Quarter

Hourly Weather History & Observations

Time (EDT) Temp. Dew Point Humidity Pressure Visibility Wind Dir Wind Speed Gust Speed Precip Events Conditions
12:58 AM 75.2 °F 69.6 °F 83% 29.92 in 10.0 mi East 3.5 mph - N/A   Mostly Cloudy
1:43 AM 75.2 °F 69.8 °F 83% 29.91 in 10.0 mi ESE 5.8 mph - N/A Rain Light Rain Showers
1:54 AM 75.2 °F 69.8 °F 83% 29.91 in 10.0 mi SE 5.8 mph - N/A   Mostly Cloudy
1:58 AM - - N/A% - 10.0 mi SE 4.6 mph - 0.00 in   Mostly Cloudy
2:45 AM 75.2 °F 69.8 °F 83% 29.90 in 10.0 mi SE 4.6 mph - N/A Rain Light Rain
2:58 AM 74.7 °F 71.1 °F 88% 29.89 in 9.0 mi Variable 1.2 mph - 0.00 in Rain Light Rain
3:12 AM 73.4 °F 71.6 °F 94% 29.88 in 10.0 mi ENE 3.5 mph - N/A Rain Light Rain
3:25 AM 73.4 °F 71.6 °F 94% 29.88 in 10.0 mi ESE 3.5 mph - N/A   Mostly Cloudy
3:40 AM 73.4 °F 71.6 °F 94% 29.88 in 10.0 mi Calm Calm - N/A Rain Light Rain
3:53 AM 73.4 °F 71.6 °F 94% 29.88 in 10.0 mi Calm Calm - N/A   Mostly Cloudy
3:58 AM 73.6 °F 70.5 °F 90% 29.87 in 10.0 mi Calm Calm - 0.01 in   Mostly Cloudy
4:45 AM 71.6 °F 71.6 °F 100% 29.86 in 10.0 mi ENE 3.5 mph - N/A   Mostly Cloudy
4:53 AM 71.6 °F 71.6 °F 100% 29.86 in 10.0 mi East 2.3 mph - N/A Thunderstorm Mostly Cloudy
4:58 AM 72.5 °F 71.6 °F 97% 29.86 in 10.0 mi East 3.5 mph - 0.01 in Thunderstorm Mostly Cloudy
5:17 AM 73.4 °F 71.6 °F 94% 29.87 in 9.0 mi East 2.3 mph - N/A Rain , Thunderstorm Light Rain
5:30 AM 73.4 °F 71.6 °F 94% 29.87 in 4.0 mi NE 3.5 mph - N/A Rain , Thunderstorm Light Rain
5:39 AM 73.4 °F 71.6 °F 94% 29.87 in 9.0 mi NNE 2.3 mph - N/A Rain Light Rain
5:40 AM 73.4 °F 71.6 °F 94% 29.87 in 9.0 mi NNE 3.5 mph - N/A Rain Light Rain
5:44 AM 73.4 °F 71.6 °F 94% 29.87 in 10.0 mi NNE 3.5 mph - N/A   Mostly Cloudy
5:58 AM 72.3 °F 71.4 °F 97% 29.86 in 4.0 mi NE 1.2 mph - 0.03 in   Mostly Cloudy
6:17 AM 71.6 °F 71.6 °F 100% 29.87 in 9.0 mi Calm Calm - N/A Rain Light Rain
6:27 AM 71.6 °F 71.6 °F 100% 29.87 in 4.0 mi East 3.5 mph - N/A Rain Rain
6:37 AM 71.6 °F 71.6 °F 100% 29.87 in 4.0 mi East 2.3 mph - N/A Rain Rain
6:58 AM 72.1 °F 71.6 °F 98% 29.86 in 3.0 mi East 2.3 mph - 0.01 in Rain Light Rain
7:08 AM 71.6 °F 71.6 °F 100% 29.87 in 4.0 mi SSE 2.3 mph - N/A Rain Light Rain
7:18 AM 71.6 °F 71.6 °F 100% 29.88 in 3.0 mi SW 2.3 mph - N/A Rain Light Rain
7:28 AM 71.6 °F 71.6 °F 100% 29.88 in 3.0 mi SW 2.3 mph - N/A Rain Light Rain
7:58 AM 72.7 °F 71.8 °F 97% 29.87 in 3.0 mi SSW 3.5 mph - 0.02 in   Mostly Cloudy
8:18 AM 73.4 °F 71.6 °F 94% 29.88 in 4.0 mi SSW 4.6 mph - N/A   Mostly Cloudy
8:58 AM 73.2 °F 70.5 °F 91% 29.88 in 4.0 mi SW 3.5 mph - N/A   Mostly Cloudy
9:38 AM 73.4 °F 69.8 °F 88% 29.88 in 4.0 mi NNW 4.6 mph - N/A   Overcast
9:48 AM 71.6 °F 69.8 °F 94% 29.87 in 4.0 mi NNE 8.1 mph - N/A Rain Light Rain
9:58 AM 71.2 °F 69.1 °F 93% 29.87 in 4.0 mi NNE 5.8 mph - 0.00 in   Light Drizzle
10:16 AM 71.6 °F 69.8 °F 94% 29.87 in 10.0 mi NNE 4.6 mph - N/A   Overcast
10:58 AM 71.6 °F 68.5 °F 90% 29.87 in 10.0 mi NE 5.8 mph - 0.00 in   Overcast
11:13 AM 71.6 °F 69.8 °F 94% 29.88 in 10.0 mi East 1.2 mph - N/A Rain Light Rain
11:23 AM 71.6 °F 68.0 °F 88% 29.88 in 10.0 mi NE 2.3 mph - N/A Rain Light Rain
11:31 AM 71.6 °F 68.0 °F 88% 29.88 in 10.0 mi NNE 3.5 mph - N/A   Overcast
11:51 AM 71.6 °F 69.8 °F 94% 29.88 in 10.0 mi NNE 4.6 mph - N/A   Overcast
11:58 AM 72.7 °F 69.1 °F 88% 29.86 in 10.0 mi NNE 4.6 mph - 0.00 in   Overcast
12:08 PM 73.4 °F 69.8 °F 88% 29.87 in 10.0 mi ENE 3.5 mph - N/A   Overcast
12:58 PM 74.3 °F 69.6 °F 85% 29.86 in 10.0 mi NNE 3.5 mph - N/A   Overcast
1:37 PM 75.2 °F 68.0 °F 78% 29.85 in 10.0 mi NE 2.3 mph - N/A Rain Light Rain
1:58 PM 75.6 °F 68.9 °F 80% 29.83 in 10.0 mi Calm Calm - 0.00 in   Overcast
2:18 PM 75.2 °F 69.8 °F 83% 29.84 in 4.0 mi ESE 5.8 mph - N/A Rain Light Rain Showers
2:21 PM 75.2 °F 69.8 °F 83% 29.84 in 4.0 mi SE 5.8 mph - N/A Rain Light Rain Showers
2:31 PM 75.2 °F 69.8 °F 83% 29.84 in 4.0 mi SE 8.1 mph - N/A Rain Light Rain Showers
2:47 PM 73.4 °F 71.6 °F 94% 29.84 in 2.0 mi SSE 8.1 mph - N/A Rain Rain
2:58 PM 72.5 °F 70.5 °F 93% 29.83 in 1.2 mi South 6.9 mph - 0.05 in Rain Heavy Rain
3:12 PM 71.6 °F 71.6 °F 100% 29.83 in 2.0 mi SE 5.8 mph - N/A Rain Light Rain
3:41 PM 71.6 °F 69.8 °F 94% 29.83 in 3.0 mi SSE 2.3 mph - N/A Rain Rain
3:51 PM 73.4 °F 69.8 °F 88% 29.83 in 3.0 mi ESE 2.3 mph - N/A Rain Light Rain
3:58 PM 73.4 °F 68.0 °F 83% 29.83 in 3.0 mi NE 1.2 mph - 0.20 in Rain Light Rain
4:10 PM 73.4 °F 69.8 °F 88% 29.83 in 5.0 mi Calm Calm - N/A   Overcast
4:58 PM 75.0 °F 70.2 °F 85% 29.81 in 10.0 mi South 3.5 mph - 0.00 in   Mostly Cloudy
5:01 PM 75.2 °F 69.8 °F 83% 29.82 in 10.0 mi SSE 3.5 mph - N/A Thunderstorm Mostly Cloudy
5:32 PM 75.2 °F 69.8 °F 83% 29.81 in 10.0 mi SW 2.3 mph - N/A   Mostly Cloudy
5:58 PM 75.2 °F 69.8 °F 83% 29.81 in 10.0 mi Calm Calm - N/A   Mostly Cloudy
6:58 PM 77.9 °F 70.5 °F 78% 29.78 in 10.0 mi ESE 3.5 mph - N/A   Mostly Cloudy
7:18 PM 78.8 °F 69.8 °F 74% 29.79 in 10.0 mi East 2.3 mph - N/A   Mostly Cloudy
7:47 PM 75.2 °F 69.8 °F 83% 29.79 in 10.0 mi West 2.3 mph - N/A   Mostly Cloudy
7:58 PM 75.6 °F 70.0 °F 83% 29.78 in 10.0 mi West 3.5 mph - N/A   Scattered Clouds
8:58 PM 74.1 °F 69.3 °F 85% 29.78 in 10.0 mi South 1.2 mph - N/A   Scattered Clouds
9:58 PM 71.1 °F 69.3 °F 94% 29.81 in 9.0 mi West 2.3 mph - N/A   Partly Cloudy
10:58 PM 69.6 °F 68.7 °F 97% 29.82 in 9.0 mi SW 3.5 mph - N/A   Partly Cloudy
11:18 PM 69.8 °F 69.8 °F 100% 29.83 in 6.0 mi SW 1.2 mph - N/A   Clear
11:58 PM 69.8 °F 69.1 °F 98% 29.82 in 9.0 mi SSE 2.3 mph - N/A Fog Shallow Fog